Regional Weather Roundup
Issued by NWS Green Bay, WI

Home | Current Version | Previous Version | Graphics & Text | Print | Product List | Glossary Off
Versions: 1 2 3 4 5 6 7 8 9 10 11 12 13 14 15 16 17 18 19 20 21 22 23 24 25 26 27 28 29 30 31 32 33 34 35 36 37 38 39 40 41 42 43 44 45 46 47 48 49 50

000
ASUS43 KGRB 261911
RWRGRB

NORTH-CENTRAL AND NORTHEAST WISCONSIN REGIONAL WEATHER ROUNDUP
NATIONAL WEATHER SERVICE GREEN BAY WI
200 PM CDT WED APR 26 2017

WIZ005-009-010>012-018-019-262000-
NORTH CENTRAL WISCONSIN

CITY           SKY/WX    TMP DP  RH WIND       PRES   REMARKS
IRONWOOD       LGT RAIN  33  32  96 N12G18    29.47F
MANITOWISH WTR RAIN      35  35 100 N9        29.41S
ARBOR VITAE    LGT RAIN  39  37  94 N9        29.39R
EAGLE RIVER    RAIN      40  40 100 N7        29.38F
LAND O LAKES   RAIN      37  37 100 N9        29.41F
RHINELANDER    LGT RAIN  45  45 100 N6        29.38R
PHILLIPS       CLOUDY    36  36  99 N10       29.41S
ANTIGO         CLOUDY    56  56 100 S8        29.37R
TOMAHAWK       DRIZZLE   42  41  95 N5        29.39R
MERRILL        CLOUDY    52  52 100 N6        29.37R
$$

WIZ013-073-262000-
NORTHEAST WISCONSIN

CITY           SKY/WX    TMP DP  RH WIND       PRES   REMARKS
IRON MOUNTAIN  LGT RAIN  55  51  86 SE7       29.36F FOG
MARINETTE      LGT RAIN  53  51  93 S8        29.39S
OCONTO         CLOUDY    54  52  94 S9        29.38R
$$

WIZ017-030-035>037-045-262000-
CENTRAL WISCONSIN

CITY           SKY/WX    TMP DP  RH WIND       PRES   REMARKS
MEDFORD        LGT RAIN  47  46  95 NW7       29.38R
WAUSAU         CLOUDY    58  57  97 SW7       29.34R
MOSINEE        CLOUDY    57  57 100 SW12G17   29.38R
MARSHFIELD     CLOUDY    50  47  89 W15       29.38R
WISC RAPIDS    CLOUDY    60  57  89 W9        29.38S
STEVENS POINT  CLOUDY    59  57  94 SW13G18   29.38R
WAUPACA        CLOUDY    65  60  85 S13       29.38R
SHAWANO        CLOUDY    63  59  87 S6        29.37R
CLINTONVILLE   CLOUDY    59  59 100 S10       29.38R
WAUTOMA        CLOUDY    64  59  83 SW16      29.39
$$

WIZ038-039-048-051-262000-
FOX VALLEY

CITY           SKY/WX    TMP DP  RH WIND       PRES   REMARKS
NWS GREEN BAY  CLOUDY    60  59  96 SE10      29.38S
APPLETON       PTSUNNY   63  61  94 S17       29.37S
OSHKOSH        CLOUDY    65  58  78 S16G24    29.39R
FOND DU LAC    CLOUDY    63  57  81 S14       29.41R
$$

WIZ022-050-052-262000-
EAST CENTRAL WISCONSIN

CITY           SKY/WX    TMP DP  RH WIND       PRES   REMARKS
EPHRAIM        RAIN      54  54 100 S9G17     29.39R
WASHINGTON ISL RAIN      51  50  95 S7        29.40F
STURGEON BAY   LGT RAIN  54  52  93 S12       29.40S FOG
MANITOWOC      CLOUDY    56  54  93 S10       29.41S
SHEBOYGAN      CLOUDY    65  62  90 S14       29.42R FOG
$$

LMZ563-521-522-541>543-262000-
LAKESHORE

STATION/POSITION TIME  TEMP    WIND        PRES    VSBY  WAVE
                       AIR SEA DIR/SP/G                  HT/PER
                 (UTC) (F)     (DEG/KT/KT) (MB)    (MI)  (FT/S)
SHEBOYGAN LKSHOR 1900   51     170/ 14/ 15  996.0F
KEWAUNEE LKSHORE 1848   48     180/ 10/ 12  995.9R
NORTHPORT PIER   1840   47     140/  9/ 12  995.6F
N MID LAKE BUOY  1850   45 37   70/  2/  4  997.4R         2/ 3
CHAMBERS ISLAND  1840   54     140/  7/ 17  994.9S
MENOMINEE LKSHOR 1848   50     160/  8/ 12  994.2F
$$



USA.gov is the U.S. government's official web portal to all federal, state and local government web resources and services.